{"data":{"norad_id":53316,"intl_designator":"2022-088A","name":"YAOGAN-35 03A","alt_names":[],"object_type":"PAYLOAD","status":"ACTIVE","operator":null,"country":"PRC","launch_date":"2022-07-29","launch_site_code":"XICLF","launch_vehicle":null,"mission":null,"orbit_class":"UNKNOWN","rcs_meters":null,"size_class":null,"mass_kg":null,"dimensions":null,"purposes":[],"wikipedia_slug":null,"has_3d_model":false,"image_url":null,"decayed_at":null,"tle_current":{"epoch":"2026-06-29T14:56:47.157792Z","epoch_age_seconds":7300962,"freshness":"OLD","line1":"1 53316U 22088A   26180.62276803  .09384115  14245-5  93985-3 0  9998","line2":"2 53316  35.0076 309.0104 0003678 318.2686  41.7783 16.36949118220110","mean_motion":16.36949118,"eccentricity":0.0003678,"inclination_deg":35.0076,"raan_deg":309.0104,"arg_perigee_deg":318.2686,"mean_anomaly_deg":41.7783,"bstar":0.00093985,"rev_number":22011,"period_min":87.968525360114,"perigee_km":171.52102510498,"apogee_km":176.34072623432,"semimajor_km":6552.0678756697,"source":"CELESTRAK","updated_at":"2026-06-30T09:00:09.365490Z"}}}